Torna al catalogo

DELTA 1 DEB

AttivoSSO
NORAD 13569·DEBRIS·🇺🇸 United States

Lanciato Mar 5, 1978 da Vandenberg Space Force Base

Loading…

Prossimi Passaggi (prossime 24 ore)

TLE

AggiornatoSource: Space-Track

Epoca: Sep 13, 2026, 20:21 UTC

1 13569U 78026FG  26256.84825692  .00001493  00000-0  66968-3 0  9997
2 13569  99.0797   4.1051 0094285 323.0543 163.4010 14.21757123295820

Traccia DELTA 1 DEB in tempo reale con AllMySat

Download on the App Store